Regional Weather Roundup
Issued by NWS

Home | Current Version | Previous Version | Graphics & Text | Print | Product List | Glossary On
Versions: 1 2 3 4 5 6 7 8 9 10 11 12 13 14 15 16 17 18 19 20 21 22 23 24 25 26 27 28 29 30 31 32 33 34 35 36 37 38 39 40 41 42 43 44 45 46 47 48 49 50
000
ASUS43 KOAX 192102
RWRNE

WEATHER ROUNDUP FOR NEBRASKA
NATIONAL WEATHER SERVICE OMAHA NE
400 PM CDT TUE AUG 19 2014

NOTES: SATELLITE DATA IS BEING USED TO AUGMENT CLOUD COVER ABOVE
       12000 FEET.
       "FAIR" INDICATES FEW OR NO CLOUDS BELOW 12,000 FEET WITH NO
       SIGNIFICANT WEATHER AND/OR OBSTRUCTIONS TO VISIBILITY.

  * THESE STATIONS DO NOT REPORT WEATHER SUCH AS RAIN...SNOW OR FOG.

NEZ001>004-019>022-054>056-192200-
NEBRASKA PANHANDLE

CITY           SKY/WX    TMP DP  RH WIND       PRES   REMARKS
SCOTTSBLUFF    MOSUNNY   92  55  28 NW9       29.81F HX  90
ALLIANCE       CLOUDY    91  53  27 S13G23    29.82F
CHADRON        PTSUNNY   95  47  19 W6        29.74F HX  91
KIMBALL        MOSUNNY   90  47  22 SE14      29.87F
SIDNEY         MOSUNNY   93  53  25 S18       29.86F HX  90
$$

NEZ057>060-069>072-079>082-192200-
SOUTHWEST NEBRASKA

CITY           SKY/WX    TMP DP  RH WIND       PRES   REMARKS
NORTH PLATTE   MOSUNNY   88  66  48 E18       29.80F HX  90
IMPERIAL       SUNNY     92  55  28 SE14      29.81F HX  90
LEXINGTON      MOSUNNY   85  69  59 SE12      29.82F
MCCOOK         MOSUNNY   93  60  33 S12       29.79F HX  93
OGALLALA       MOSUNNY   87  54  32 SE9       29.82F
$$

NEZ005>010-023>029-035>040-094-192200-
NORTH CENTRAL NEBRASKA

CITY           SKY/WX    TMP DP  RH WIND       PRES   REMARKS
VALENTINE      SUNNY     91  58  32 SE12G21   29.79F HX  90
AINSWORTH      SUNNY     86  61  42 SE10      29.80F
BROKEN BOW     MOSUNNY   87  68  52 SE13G25   29.82S HX  90
O`NEILL        SUNNY     85  65  49 E13       29.81F
ORD            SUNNY     85  64  49 SE8       29.80F
THEDFORD       SUNNY     90  60  35 SE12G20   29.82F
$$

NEZ041-046>049-061>064-073>077-083>087-192200-
SOUTH CENTRAL NEBRASKA

CITY           SKY/WX    TMP DP  RH WIND       PRES   REMARKS
GRAND ISLAND   SUNNY     87  68  52 SE7       29.82F HX  90
AURORA         SUNNY     89  64  44 S9        29.82F HX  90
HASTINGS       SUNNY     87  67  51 SE13      29.81F HX  90
HEBRON         SUNNY     90  62  38 SW6       29.81S HX  90
HOLDREGE       SUNNY     87  67  51 E13       29.82F
KEARNEY *      SUNNY     88  68  51 SE14      29.82F HX  91
$$

NEZ011>018-030>034-042>045-192200-
NORTHEAST NEBRASKA

CITY           SKY/WX    TMP DP  RH WIND       PRES   REMARKS
NORFOLK        SUNNY     86  62  44 SE6       29.81F
ALBION         SUNNY     84  64  50 SE8       29.82F
BLAIR          SUNNY     86  61  43 CALM      29.81F
COLUMBUS *     SUNNY     84  64  51 S6        29.82F
FREMONT        SUNNY     88  60  39 CALM      29.81F
TEKAMAH        SUNNY     87  63  44 CALM      29.80F
WAYNE          SUNNY     84  66  55 CALM      29.81F
$$

NEZ050>053-065>068-078-088>093-192200-
SOUTHEAST NEBRASKA

CITY           SKY/WX    TMP DP  RH WIND       PRES   REMARKS
LINCOLN        SUNNY     91  64  40 NE9       29.81S HX  92
OMAHA EPPLEY   MOSUNNY   89  62  40 VRB3      29.79F
BEATRICE       SUNNY     90  69  50 CALM      29.81F HX  94
FALLS CITY     SUNNY     90  70  51 VRB6      29.80F HX  95
NEBRASKA CITY  SUNNY     86  65  49 S8        29.82R
PLATTSMOUTH    SUNNY     88  60  38 E3        29.81S
$$

NEZ044-045-051>053-067-192200-
OMAHA AREA

CITY           SKY/WX    TMP DP  RH WIND       PRES   REMARKS
OMAHA EPPLEY   MOSUNNY   89  62  40 VRB3      29.79F
BLAIR          SUNNY     86  61  43 CALM      29.81F
FREMONT        SUNNY     88  60  39 CALM      29.81F
MILLARD        SUNNY     90  63  40 CALM      29.79S HX  90
OFFUTT AFB     SUNNY     89  64  43 VRB5      29.79F
PLATTSMOUTH    SUNNY     88  60  38 E3        29.81S
WAHOO          FAIR      86  60  41 NE3       29.81F
$$



USA.gov is the U.S. government's official web portal to all federal, state and local government web resources and services.